Location: Beckers Corners
(42.5484°N, 73.8110°W)
Time: 07:46:31
(UTC+00:00)

DIWATA 2B (PO-101) - Pass Details

Date: 05 December 2024
Orbit: 569 x 582 km, 98.1° (Epoch: 18 January)

Event Time Altitude Azimuth Distance (km) Brightness Sun altitude
Rises 22:17:36 0° 7° (N) 2,797 ? -10.0°
Reaches altitude 10° 22:19:48 10° 2° (N) 1,891 ? -10.4°
Maximum altitude 22:23:45 49° 288° (WNW) 741 ? -11.1°
Drops below altitude 10° 22:27:40 10° 213° (SSW) 1,869 ? -11.8°
Sets 22:29:50 0° 208° (SSW) 2,760 ? -12.1°
